Location: Waco, TX
(31.5480°N, 97.1670°W)
Time: 22:58:34
(UTC-05:00)

ISS - Pass Details

Date: 23 April 2018
Orbit: 403 x 406 km, 51.6° (Epoch: 23 April)

Event Time Altitude Azimuth Distance (km) Brightness Sun altitude
Rises 17:52:25 0° 289° (WNW) 2,319 1.1 26.7°
Reaches altitude 10° 17:56:00 10° 248° (WSW) 1,456 0.4 25.9°
Maximum altitude 17:56:43 11° 235° (SW) 1,422 0.0 25.7°
Drops below altitude 10° 17:57:26 10° 222° (SW) 1,454 -0.3 25.6°
Sets 18:01:01 0° 181° (S) 2,307 0.0 24.8°
